Weather in Verkhnia Manuilivka

Ukraine / Poltava Region     49°20′43″N   33°43′37″E
temp.,
°C
wind,
m/s
gust,
m/s
humid.,
%
clouds,
%
prec.,
mm/h
press.,
hPa
HPBL,
m
13 may, thu
thu1300:00+6ene22945 0.0 101219
03:00+5wsw11958 0.0 101211
06:00+6s119299 0.0 101225
09:00+12s336935 0.0 1012748
12:00+15sse4454100 0.0 10121361
15:00+18s46445 0.0 10121819
18:00+18sse4654100 0.0 1012645
21:00+13se3566100 0.0 101264
14 may, fri
fri1400:00+11se3568100 0.0 101269
03:00+12e4765100 0.0 1011138
06:00+11ese3786100 0.1 1010144
09:00+18se57735 0.2 1009490
12:00+22sse686074 0.0 10081383
15:00+24s79459 0.0 10071758
18:00+22s695610 0.0 1007993
21:00+15ssw410760 0.2 1008196
15 may, sat
sat1500:00+13ssw378988 0.0 1009129
03:00+12sw369499 0.0 1010119
06:00+12ssw35945 0.0 1011146
09:00+17sw34675 0.0 1012573
12:00+22sw46498 0.0 10121852
15:00+21ssw3560100 0.0 1012209
18:00+21sw2355100 0.0 1012731
21:00+17e0171100 0.1 101311
16 may, sun
sun1600:00+14ene22811 0.1 101314
03:00+13se11835 0.1 101310
06:00+14ne11825 0.0 101310
09:00+20ene226330 0.0 1014399
12:00+23e3349100 0.0 10131504
15:00+25e344262 0.0 10122124
18:00+24ene34495 0.0 1010759
21:00+18ene466796 0.0 101077
17 may, mon
mon1700:00+17ne4776100 0.0 1009119
03:00+17ne4984100 0.3 1007199
06:00+16ne2389100 0.5 100768
09:00+21ene3369100 0.5 1006447
12:00+22ese236389 0.0 1004722
15:00+26sse5554100 0.0 10041508
18:00+23w566967 0.1 1004377
21:00+17nw61194100 4.1 1006354